Location: M?digepalle
(16.1753°N, 80.3496°E)
Time: 09:08:37
(UTC+00:00)

CZ-4B R/B - Pass Details

Date: 29 October 2020
Orbit: 489 x 649 km, 97.9° (Epoch: 27 November)

Event Time Altitude Azimuth Distance (km) Brightness Sun altitude
Rises 23:43:12 0° 6° (N) 2,835 6.4 -13.0°
Reaches altitude 10° 23:45:21 10° 3° (N) 1,956 5.5 -12.5°
Maximum altitude 23:49:34 64° 283° (WNW) 692 3.0 -11.5°
Drops below altitude 10° 23:53:57 10° 201° (SSW) 2,022 5.6 -10.5°
Sets 23:56:11 0° 198° (SSW) 2,941 6.5 -9.9°
